Ephrata, WA
on Sunday, February 3, 2013

Sunday
Previous Day Next Day
Daily Summary
 ActualAverageRecord
Temperature
Mean Temperature °F 32°F  
Max Temperature 34°F 39°F 54°F (1962)
Min Temperature 23°F 24°F -19°F (1950)
Degree Days
Heating Degree Days 36 33  
Month to date heating degree days 101 100  
Since 1 July heating degree days 3537 3808  
Cooling Degree Days 0 0  
Month to date cooling degree days 0 0  
Year to date cooling degree days 0 0  
Moisture
Dew Point 28°F   
Average Humidity 89    
Maximum Humidity 96    
Minimum Humidity 82    
Precipitation
Precipitation 0.00 in 0.02 in 0.24 in (1990)
Month to date precipitation 0.00 0.07  
Year to date precipitation 0.19 0.98  
Wind
Wind Speed 2 mph   
Max Wind Speed 10 mph   
Max Gust Speed 13 mph   
Visibility 9 miles   
Events     

Key: T is trace of precipitation, MM is missing value
Source: NWS Daily Summary
Time(PST)TemperatureDew PointHumidity Pressure Visibility Wind DirectionWind SpeedGust SpeedPrecipitationEvents Conditions
12:53 AM 25.0°F 23.0°F 92% 30.27 in 10.0 miles NNE 6.9 mph - N/A   Clear
1:53 AM 24.1°F 21.9°F 91% 30.29 in 10.0 miles North 6.9 mph - N/A   Clear
2:53 AM 25.0°F 23.0°F 92% 30.26 in 10.0 miles North 6.9 mph - N/A   Clear
3:39 AM 26.6°F 23.0°F 86% 30.21 in 10.0 miles NNE 3.5 mph - N/A   Scattered Clouds
3:48 AM 26.6°F 24.8°F 93% 30.21 in 10.0 miles NNW 4.6 mph - N/A   Mostly Cloudy
3:53 AM 27.0°F 24.1°F 89% 30.25 in 10.0 miles North 4.6 mph - N/A   Mostly Cloudy
4:53 AM 28.0°F 26.1°F 92% 30.25 in 10.0 miles Calm Calm - N/A   Overcast
5:53 AM 28.0°F 26.1°F 92% 30.25 in 10.0 miles NNW 4.6 mph - N/A   Overcast
6:15 AM 28.4°F 26.6°F 93% 30.20 in 10.0 miles North 4.6 mph - N/A   Overcast
6:33 AM 28.4°F 26.6°F 93% 30.20 in 10.0 miles NNE 4.6 mph - N/A   Overcast
6:53 AM 28.0°F 26.1°F 92% 30.24 in 10.0 miles Calm Calm - N/A   Overcast
7:51 AM 28.4°F 26.6°F 93% 30.21 in 10.0 miles Calm Calm - N/A   Overcast
7:53 AM 28.9°F 26.1°F 89% 30.25 in 10.0 miles Calm Calm - N/A   Overcast
8:31 AM 30.2°F 26.6°F 86% 30.20 in 10.0 miles North 3.5 mph - N/A   Scattered Clouds
8:34 AM 30.2°F 26.6°F 86% 30.20 in 10.0 miles North 3.5 mph - N/A   Mostly Cloudy
8:53 AM 30.0°F 27.0°F 88% 30.26 in 10.0 miles NNE 3.5 mph - N/A   Mostly Cloudy
9:48 AM 30.2°F 28.4°F 93% 30.21 in 10.0 miles NNE 3.5 mph - N/A   Scattered Clouds
9:53 AM 30.9°F 28.0°F 89% 30.26 in 10.0 miles NNE 3.5 mph - N/A   Scattered Clouds
10:00 AM 30.2°F 28.4°F 93% 30.21 in 10.0 miles NE 4.6 mph - N/A   Mostly Cloudy
10:07 AM 30.2°F 28.4°F 93% 30.21 in 10.0 miles NE 3.5 mph - N/A   Mostly Cloudy
10:53 AM 32.0°F 28.9°F 88% 30.27 in 10.0 miles NNE 3.5 mph - N/A   Overcast
11:53 AM 32.0°F 28.9°F 88% 30.25 in 10.0 miles Calm Calm - N/A   Overcast
12:53 PM 34.0°F 28.9°F 82% 30.22 in 10.0 miles Calm Calm - N/A   Overcast
1:53 PM 34.0°F 28.9°F 82% 30.21 in 10.0 miles NNE 3.5 mph - N/A   Mostly Cloudy
2:14 PM 33.8°F 28.4°F 81% 30.18 in 10.0 miles North 5.8 mph - N/A   Overcast
2:53 PM 34.0°F 28.9°F 82% 30.21 in 10.0 miles NE 5.8 mph - N/A   Overcast
3:53 PM 34.0°F 30.0°F 85% 30.20 in 10.0 miles NNE 3.5 mph - N/A   Overcast
4:53 PM 34.0°F 30.0°F 85% 30.20 in 10.0 miles Calm Calm - N/A   Overcast
5:25 PM 33.8°F 30.2°F 87% 30.15 in 10.0 miles NNE 4.6 mph - N/A   Overcast
5:53 PM 33.1°F 30.0°F 89% 30.19 in 10.0 miles NNE 3.5 mph - N/A   Overcast
6:53 PM 34.0°F 30.9°F 89% 30.20 in 9.0 miles Calm Calm - N/A   Overcast
7:22 PM 33.8°F 30.2°F 87% 30.15 in 7.0 miles NNW 3.5 mph - N/A   Overcast
7:53 PM 33.1°F 32.0°F 96% 30.19 in 5.0 miles Calm Calm - N/A   Overcast
8:37 PM 33.8°F 30.2°F 87% 30.13 in 6.0 miles Calm Calm - N/A   Overcast
8:53 PM 33.1°F 30.9°F 92% 30.17 in 7.0 miles Calm Calm - N/A   Overcast
9:53 PM 32.0°F 30.0°F 92% 30.18 in 8.0 miles Calm Calm - N/A   Overcast
10:53 PM 32.0°F 30.0°F 92% 30.16 in 7.0 miles Calm Calm - N/A   Overcast
11:53 PM 32.0°F 30.0°F 92% 30.15 in 6.0 miles Calm Calm - N/A   Overcast
Moon Phase
Feb. 03 Feb. 10 Feb. 17 Feb. 25 Mar. 04
Sunrise:07:20 AM (PST) Moon Rise:12:55 AM (PST)2/3
Sunset:05:03 PM (PST) Moon Set:10:41 AM (PST)2/3

Copyright © 2014 The Weather Underground, Inc.